Probability
42 55 52 52 77 87 90 94 94 94 90 81 81 84 84 84 84 84 71 71 71 68 74 71 81 81 81 68 71 65 71 61 61 55 48 58 48 58 58 48 45 42 42
52 61 55 52 71 84 90 90 94 94 94 90 84 84 87 87 87 84 81 77 74 74 55 74 71 77 84 81 71 71 65 58 61 61 55 45 48 45 29 52 45 42 35
52 55 58 68 71 77 84 77 94 90 94 94 81 81 84 90 81 84 87 84 84 77 77 74 74 77 77 81 77 77 74 68 65 68 65 48 39 45 55 48 42 48 52
55 61 68 68 74 77 81 94 94 97 94 94 90 87 87 84 87 90 87 81 87 81 74 81 81 84 74 87 74 77 77 74 65 74 71 65 61 55 45 48 42 42 42
45 52 68 71 68 71 81 90 94 97 97 97 94 94 90 90 94 94 84 84 87 84 77 74 74 81 84 81 81 77 77 74 74 71 68 55 61 48 45 35 42 35 35
52 55 61 74 71 68 74 84 94 97 97 97 97 97 97 97 94 90 90 84 84 77 74 71 68 65 71 74 74 71 74 71 71 71 65 61 61 48 48 42 45 45 45
45 58 68 71 68 71 77 84 84 94 94 90 90 90 94 94 90 84 81 81 71 71 74 68 71 65 65 71 71 71 71 71 71 71 71 68 68 65 58 52 48 45 52
39 61 68 68 71 68 71 81 84 87 87 87 87 87 84 81 77 84 81 77 74 71 71 68 68 68 61 61 71 71 71 71 71 68 65 68 68 68 58 52 52 39 45
42 48 61 65 71 71 71 77 81 84 84 81 81 84 77 77 77 77 74 71 71 65 68 68 68 68 61 65 68 68 71 71 71 71 65 65 61 58 58 52 52 48 42
48 58 65 61 65 65 68 74 77 77 81 74 71 68 74 74 77 77 68 71 71 68 68 68 68 65 65 61 68 58 68 68 68 68 61 58 55 48 55 48 45 48 45
39 52 52 58 58 65 61 71 77 77 77 74 77 74 74 74 74 74 71 71 65 65 71 65 65 61 58 58 61 55 55 58 65 61 61 58 55 45 48 42 42 35 39
32 48 55 52 58 65 65 68 71 77 74 77 77 77 77 77 74 65 65 61 61 58 68 61 58 52 52 52 58 58 58 55 61 55 52 45 42 42 42 42 45 39 42
35 48 55 58 58 58 65 71 71 71 71 68 68 71 68 71 68 65 61 61 58 55 58 52 58 48 52 48 48 52 52 52 39 39 48 45 45 45 32 39 42 42 32
48 52 55 61 65 58 58 61 65 68 68 68 68 68 68 65 68 61 58 58 58 55 52 48 48 52 48 48 45 48 52 45 39 45 42 39 45 42 39 35 39 39 35
45 52 58 65 65 61 58 65 61 61 61 65 61 65 61 65 68 58 58 58 55 48 48 48 48 42 39 39 39 45 35 39 42 42 39 39 35 35 29 26 29 29 26
45 48 55 61 65 65 58 58 58 58 58 58 65 58 61 61 61 58 58 55 52 52 52 48 39 39 32 29 29 32 35 35 35 39 39 39 26 26 16 13 13 13 19
42 45 55 58 58 58 55 55 58 58 58 58 58 52 55 61 58 52 48 45 45 45 45 45 42 39 32 29 13 19 32 35 35 35 39 32 29 23 26 16 6 6 6
39 42 42 55 55 48 55 55 55 55 58 58 55 55 52 48 48 48 45 45 45 45 45 45 42 35 29 23 13 6 23 35 35 35 35 35 29 19 16 23 19 19 23
42 42 39 45 52 48 52 55 55 52 52 55 52 48 45 39 32 39 42 45 45 45 42 45 39 35 32 19 10 3 23 29 32 35 32 29 29 16 10 13 19 16 23
39 42 42 48 52 52 52 52 52 52 52 52 48 45 45 42 39 35 48 45 45 45 39 35 35 29 23 16 6 0 23 26 26 26 19 13 19 13 6 10 13 16 16
48 45 48 52 48 52 48 48 48 45 45 42 45 45 42 39 39 35 42 45 42 39 35 35 29 23 23 16 6 0 6 19 19 16 13 16 3 0 0 0 6 13 13
42 45 45 52 45 42 42 45 45 45 45 42 42 42 39 35 29 35 32 42 42 32 35 26 26 26 23 16 6 0 0 6 16 13 6 6 3 0 0 0 6 6 6
45 39 32 32 32 32 35 32 32 32 35 35 35 32 32 29 26 26 23 23 32 26 23 23 23 23 23 10 10 0 0 0 3 10 10 3 0 0 0 0 0 0 6
29 26 26 29 29 29 32 35 32 32 32 32 29 26 19 26 23 16 6 6 6 16 16 16 16 16 16 10 6 3 0 0 0 3 0 0 0 0 0 0 0 0 6
32 32 29 26 32 32 29 29 29 29 32 29 13 13 13 10 16 10 6 6 10 6 10 13 13 13 16 10 6 10 10 6 6 3 3 0 0 0 0 0 0 3 3
32 32 26 26 29 26 26 26 23 19 19 19 10 10 6 10 13 10 6 0 0 0 0 6 6 6 6 0 3 3 3 3 0 0 3 0 0 0 0 0 3 3 3
Height
5905 5904 5903 5902 5901 5900 5899 5898 5897 5896 5894 5894 5893 5892 5891 5891 5891 5890 5890 5889 5889 5889 5889 5889 5889 5889 5889 5889 5889 5890 5890 5890 5891 5891 5891 5891 5891 5891 5891 5891 5891 5891 5891
5905 5904 5903 5902 5901 5900 5899 5898 5897 5896 5895 5894 5893 5893 5892 5891 5891 5891 5890 5890 5889 5889 5889 5889 5889 5889 5888 5888 5888 5889 5889 5889 5889 5889 5889 5889 5890 5889 5889 5888 5888 5888 5888
5904 5903 5903 5902 5901 5901 5900 5899 5898 5897 5896 5895 5894 5893 5893 5892 5892 5891 5890 5889 5889 5888 5888 5888 5888 5887 5887 5887 5887 5887 5887 5887 5887 5887 5887 5887 5887 5887 5887 5886 5886 5886 5886
5903 5902 5901 5901 5901 5900 5899 5898 5897 5897 5896 5895 5894 5894 5893 5892 5892 5891 5890 5889 5888 5888 5887 5886 5886 5886 5886 5886 5885 5885 5885 5885 5885 5885 5884 5884 5884 5884 5884 5884 5884 5884 5883
5901 5900 5900 5900 5899 5899 5899 5898 5897 5896 5895 5895 5894 5893 5892 5892 5891 5890 5889 5888 5887 5887 5886 5886 5885 5885 5884 5884 5884 5884 5884 5883 5883 5883 5882 5882 5882 5882 5882 5882 5882 5881 5881
5897 5899 5899 5898 5898 5898 5897 5897 5896 5895 5895 5894 5893 5892 5891 5890 5890 5889 5888 5886 5886 5885 5885 5884 5883 5883 5882 5882 5882 5881 5881 5881 5881 5880 5880 5879 5879 5879 5879 5879 5879 5878 5878
5895 5896 5896 5896 5896 5896 5895 5895 5895 5894 5893 5892 5891 5890 5889 5888 5888 5887 5886 5885 5884 5883 5882 5881 5881 5880 5880 5880 5879 5878 5878 5878 5877 5877 5876 5876 5875 5875 5875 5875 5875 5875 5875
5893 5893 5894 5894 5893 5893 5893 5893 5892 5892 5891 5890 5889 5888 5887 5886 5885 5884 5883 5882 5881 5881 5880 5879 5877 5877 5877 5876 5876 5875 5875 5874 5874 5873 5873 5872 5872 5872 5871 5871 5871 5871 5871
5890 5890 5890 5890 5890 5890 5890 5890 5889 5889 5888 5887 5886 5885 5884 5883 5882 5881 5881 5880 5879 5878 5877 5876 5875 5874 5873 5873 5872 5872 5871 5870 5870 5869 5869 5868 5868 5867 5867 5866 5866 5867 5867
5886 5886 5886 5886 5886 5887 5886 5886 5886 5885 5884 5883 5882 5882 5881 5879 5878 5878 5877 5877 5876 5875 5874 5873 5872 5871 5869 5869 5868 5867 5867 5866 5866 5865 5864 5863 5863 5862 5862 5861 5861 5862 5862
5881 5881 5882 5882 5882 5882 5882 5882 5882 5881 5881 5880 5879 5878 5877 5876 5875 5874 5873 5873 5872 5871 5870 5869 5868 5866 5865 5864 5863 5863 5863 5862 5861 5860 5859 5858 5857 5857 5857 5857 5856 5856 5856
5876 5875 5876 5877 5877 5878 5878 5878 5877 5877 5877 5876 5875 5874 5873 5872 5871 5870 5869 5868 5868 5867 5866 5865 5864 5862 5861 5860 5859 5859 5858 5857 5856 5855 5854 5853 5852 5852 5851 5851 5851 5851 5851
5871 5870 5871 5872 5872 5872 5873 5873 5872 5872 5872 5871 5870 5870 5869 5868 5867 5866 5865 5864 5864 5863 5861 5860 5859 5858 5857 5855 5854 5854 5853 5853 5852 5851 5849 5848 5847 5846 5845 5845 5845 5845 5844
5865 5865 5866 5867 5867 5867 5867 5867 5867 5866 5866 5866 5865 5864 5864 5863 5862 5861 5860 5860 5859 5858 5856 5855 5854 5853 5852 5851 5849 5848 5848 5848 5846 5845 5844 5843 5842 5841 5840 5839 5839 5838 5838
5858 5859 5860 5860 5860 5861 5861 5861 5860 5860 5860 5860 5859 5859 5858 5857 5856 5855 5855 5854 5853 5852 5851 5850 5849 5848 5847 5845 5844 5843 5843 5842 5841 5840 5839 5837 5836 5835 5834 5833 5832 5832 5832
5851 5852 5853 5854 5854 5854 5854 5853 5853 5853 5853 5853 5853 5852 5851 5851 5850 5849 5849 5848 5847 5846 5845 5844 5843 5842 5841 5839 5838 5837 5836 5835 5834 5833 5832 5831 5830 5828 5827 5827 5826 5825 5825
5843 5845 5846 5846 5847 5847 5847 5847 5846 5846 5846 5846 5846 5845 5844 5843 5843 5842 5842 5841 5840 5839 5838 5837 5835 5835 5834 5833 5831 5830 5829 5828 5827 5826 5824 5823 5822 5821 5820 5819 5819 5818 5817
5835 5837 5838 5838 5839 5839 5839 5839 5839 5839 5838 5838 5838 5837 5836 5836 5835 5835 5834 5834 5833 5831 5830 5829 5827 5827 5826 5825 5823 5822 5821 5820 5819 5817 5816 5815 5815 5813 5812 5812 5811 5810 5809
5827 5828 5829 5830 5830 5830 5831 5831 5831 5831 5830 5830 5829 5829 5828 5828 5827 5827 5826 5825 5824 5823 5822 5820 5819 5818 5817 5816 5815 5814 5813 5811 5810 5809 5808 5806 5806 5805 5804 5803 5802 5801 5800
5817 5818 5820 5821 5821 5822 5822 5822 5822 5822 5822 5821 5821 5820 5820 5819 5819 5818 5818 5817 5816 5814 5813 5812 5811 5809 5808 5807 5806 5805 5803 5802 5801 5800 5798 5797 5796 5795 5794 5794 5793 5792 5791
5808 5809 5811 5812 5812 5812 5813 5813 5813 5813 5813 5812 5811 5811 5810 5810 5809 5809 5808 5807 5806 5805 5804 5803 5802 5799 5798 5797 5797 5795 5794 5792 5790 5789 5789 5787 5786 5785 5784 5784 5783 5782 5781
5800 5801 5802 5803 5803 5803 5804 5804 5804 5804 5803 5802 5802 5801 5801 5800 5799 5799 5798 5797 5796 5795 5794 5793 5791 5789 5788 5787 5787 5785 5783 5782 5781 5779 5778 5778 5777 5776 5775 5774 5773 5772 5771
5791 5792 5793 5794 5794 5794 5795 5795 5794 5794 5793 5793 5792 5791 5790 5789 5789 5788 5788 5787 5786 5785 5784 5783 5782 5780 5779 5778 5777 5775 5773 5772 5771 5770 5769 5767 5766 5765 5765 5764 5763 5762 5761
5782 5784 5784 5785 5785 5785 5785 5785 5785 5784 5784 5783 5782 5781 5780 5779 5778 5778 5778 5777 5775 5774 5773 5772 5772 5771 5770 5769 5767 5766 5765 5763 5761 5759 5758 5757 5757 5756 5755 5754 5753 5752 5750
5774 5775 5775 5776 5776 5777 5776 5776 5775 5774 5774 5773 5772 5771 5771 5770 5769 5768 5767 5767 5766 5765 5764 5763 5762 5761 5761 5759 5758 5757 5755 5753 5752 5750 5749 5748 5747 5746 5745 5744 5743 5742 5740
5765 5765 5766 5767 5767 5767 5767 5767 5766 5765 5764 5764 5763 5762 5761 5760 5758 5758 5758 5757 5757 5756 5755 5754 5753 5751 5751 5750 5748 5747 5745 5744 5742 5740 5739 5738 5737 5736 5735 5734 5733 5732 5730
Wind_Speed
8 8 9 9 9 9 9 10 10 9 10 9 8 8 7 6 6 5 5 4 4 4 4 4 4 4 5 5 5 6 6 6 7 8 8 8 9 9 10 9 9 10 10
8 8 8 8 9 9 9 9 9 9 10 9 8 7 7 6 6 6 5 6 5 5 5 6 5 6 6 6 7 7 7 7 7 9 9 9 9 10 10 10 10 10 10
9 9 8 8 8 8 9 9 9 9 10 9 8 8 7 7 7 7 7 7 7 6 6 7 7 7 8 8 8 9 9 9 10 10 10 11 11 10 10 10 10 10 10
11 9 9 8 8 8 9 10 9 9 9 10 9 8 8 8 8 8 8 8 9 8 8 8 8 8 8 9 9 9 10 10 11 12 12 12 12 12 11 11 11 12 12
11 10 10 10 9 9 9 10 10 10 10 10 10 10 10 10 9 9 9 10 10 10 10 9 9 9 9 10 10 10 11 12 12 13 13 13 14 13 13 12 13 12 13
13 11 11 11 11 10 10 10 10 11 11 11 11 12 12 12 11 11 11 11 11 11 11 11 11 10 11 11 12 12 13 13 13 14 14 15 15 15 15 15 14 14 14
15 14 12 11 12 12 11 11 11 12 12 12 13 13 13 14 13 13 12 12 12 12 12 11 12 12 12 13 13 14 14 14 15 15 15 15 15 16 16 15 15 15 15
16 16 15 13 12 13 13 13 13 13 14 14 14 14 14 15 15 14 14 14 14 13 13 13 13 14 14 14 14 14 15 15 16 16 17 17 17 17 17 17 17 16 16
18 17 16 15 14 14 14 15 15 15 15 15 16 15 16 16 16 16 15 15 15 14 14 14 15 15 15 15 16 16 16 16 16 16 17 18 19 19 19 18 18 18 18
19 18 17 16 16 16 16 16 17 17 16 16 16 16 16 16 16 16 16 16 16 15 16 16 16 16 16 16 16 16 16 16 17 18 19 20 20 20 20 19 19 20 20
20 20 19 19 19 19 19 19 19 18 18 17 17 17 17 18 17 17 17 17 17 17 17 17 17 17 17 17 16 16 16 17 17 18 19 20 21 21 21 21 21 21 20
22 22 21 21 21 20 20 20 20 20 20 20 19 19 19 19 19 19 19 19 18 18 18 18 19 19 19 18 17 17 18 18 18 19 19 20 21 21 22 22 22 21 21
24 24 23 22 23 23 22 22 22 22 22 22 22 22 21 21 21 21 21 21 21 20 19 20 20 20 20 20 20 19 18 19 19 20 20 20 21 21 22 22 22 22 22
25 25 25 24 24 24 24 24 24 24 23 24 24 24 23 23 23 22 22 22 22 21 20 20 20 20 20 21 21 21 21 21 21 21 21 21 22 22 22 22 22 23 23
27 26 26 25 25 26 26 26 27 26 26 25 25 25 25 25 24 24 24 23 23 22 22 22 21 21 21 21 22 23 23 23 23 23 23 23 23 23 23 23 24 24 24
29 29 28 27 26 27 27 28 28 28 28 27 27 27 27 27 26 26 25 25 25 25 24 24 24 24 24 24 24 25 25 25 26 25 25 25 25 24 24 25 25 25 26
30 29 29 29 28 28 29 29 30 29 29 29 29 29 29 28 28 29 28 27 27 27 27 27 27 27 26 26 27 27 27 28 28 28 28 27 27 27 27 27 27 27 27
32 31 31 31 30 30 30 31 31 31 30 30 30 30 30 30 30 29 29 29 29 29 29 29 29 29 29 29 29 29 30 30 30 30 30 30 29 29 30 30 30 29 29
33 33 33 33 32 32 32 32 31 31 31 31 31 31 31 30 30 30 31 31 31 32 31 30 30 31 31 31 31 31 31 31 32 31 31 32 32 32 32 32 31 31 31
33 33 33 33 33 32 32 32 32 32 32 32 32 32 32 32 32 32 33 33 33 32 32 32 32 33 32 32 32 32 32 32 32 32 32 32 32 32 32 33 33 32 32
33 32 33 33 33 33 33 32 33 33 33 33 34 34 34 34 34 34 34 33 33 34 33 33 33 33 33 33 33 34 34 33 32 32 33 33 33 34 33 33 33 33 33
32 32 32 33 33 33 33 34 35 35 34 35 34 34 35 35 35 35 35 34 35 35 34 34 34 34 34 34 34 35 36 36 34 33 33 34 34 34 34 34 33 32 33
33 33 33 34 33 33 34 35 35 35 35 35 35 35 36 36 36 35 35 35 36 36 35 35 36 36 36 36 36 36 36 36 35 34 34 34 34 35 34 33 33 33 34
34 33 34 34 33 33 34 34 35 35 35 34 34 35 36 35 35 36 35 36 35 36 36 36 36 35 36 36 35 35 35 35 35 34 33 32 32 32 32 32 33 34 35
34 34 34 34 34 34 34 34 34 34 34 34 35 35 35 35 35 35 34 35 35 36 36 36 36 35 34 34 34 34 33 34 33 32 32 33 33 33 33 33 33 34 35
34 33 33 33 32 33 33 33 33 33 34 34 34 34 34 35 34 34 34 34 34 34 34 34 34 33 33 34 33 33 32 33 32 32 32 32 33 34 34 34 34 35 36
Wind_Direction
350 352 357 5 9 9 9 6 5 5 6 7 8 12 9 3 2 355 345 338 329 320 308 294 295 295 290 284 279 286 284 280 281 281 280 284 285 281 278 279 276 269 271
332 337 345 351 360 359 359 359 -0 3 2 1 2 5 4 1 353 352 351 340 325 312 308 296 290 292 294 286 283 282 283 283 283 285 284 285 287 288 284 281 278 280 280
319 321 328 337 345 349 350 352 350 351 353 354 354 355 356 353 348 346 345 338 324 314 306 300 296 294 296 295 290 282 283 283 286 287 285 286 285 286 284 282 280 281 282
309 312 316 323 331 336 339 343 346 343 343 344 343 343 342 342 339 334 331 333 325 316 310 303 297 292 292 292 293 288 288 291 292 293 291 291 288 286 284 285 286 287 288
297 302 307 310 316 320 326 332 336 338 338 337 335 334 334 331 328 326 326 325 320 314 310 305 302 300 298 296 296 297 292 291 290 292 292 289 286 284 284 285 286 290 292
289 293 297 301 304 305 311 320 326 327 327 328 329 327 325 323 321 320 318 316 314 311 309 304 301 301 302 301 297 294 293 291 291 292 290 288 285 284 284 284 284 288 289
283 286 288 289 293 298 303 310 316 318 318 318 319 320 317 316 315 313 312 309 305 304 303 298 297 297 299 300 297 293 293 292 291 290 291 291 288 285 284 284 282 284 287
279 281 282 282 286 291 295 300 304 307 309 311 313 313 312 313 312 308 308 305 302 300 298 294 294 295 296 297 297 295 294 294 293 292 291 291 288 285 285 285 284 283 284
275 277 280 282 282 286 290 294 297 299 302 303 305 308 308 306 305 305 304 304 303 302 300 295 295 296 295 293 292 293 294 294 294 294 293 294 291 288 285 286 285 285 284
269 270 274 278 281 284 286 289 294 298 300 299 299 302 306 308 305 304 305 303 302 300 298 297 298 295 294 294 290 289 292 293 293 293 293 293 291 289 286 285 284 284 284
268 268 271 275 277 279 281 284 287 292 296 298 300 301 302 304 303 300 299 299 298 297 298 297 297 298 294 290 290 290 291 291 293 295 296 293 289 288 285 283 283 285 283
268 269 270 272 274 277 279 281 284 288 291 293 294 296 298 299 299 299 298 298 297 296 296 298 297 296 296 293 291 291 290 290 292 295 297 294 289 287 284 281 281 282 282
271 271 271 272 272 274 277 280 282 285 287 289 290 292 295 295 296 297 298 297 296 297 296 296 295 293 293 291 290 289 289 292 293 294 295 294 293 290 285 283 282 281 281
268 268 269 271 271 272 276 278 281 283 284 285 287 288 290 290 291 294 294 295 294 294 294 293 293 292 292 291 289 289 289 291 292 293 293 293 293 291 288 287 285 283 283
265 267 269 270 270 271 274 276 279 281 282 283 284 285 286 286 286 289 290 291 291 291 291 291 291 291 291 291 289 287 286 288 289 289 288 289 290 289 288 287 286 285 284
265 266 268 269 270 271 272 274 277 278 280 281 281 281 282 282 282 283 285 287 288 288 288 288 288 289 288 288 287 285 286 287 287 287 287 287 287 287 287 286 286 285 285
266 267 268 269 269 269 271 272 275 277 278 279 279 280 281 281 280 281 282 284 286 287 287 286 285 285 285 286 286 285 285 286 287 286 286 285 285 285 285 285 285 285 285
267 267 268 269 268 268 270 271 274 275 277 278 278 280 280 280 279 279 280 282 285 286 286 285 284 283 283 283 283 283 284 285 285 285 284 284 284 284 284 285 285 285 286
267 267 266 266 267 268 269 271 273 274 275 276 277 278 278 278 278 278 279 281 283 284 283 284 284 283 283 282 282 283 283 285 285 284 282 282 281 283 284 285 284 284 286
266 265 266 266 266 268 269 272 273 274 276 276 276 275 276 276 276 277 278 279 280 283 283 283 283 284 284 282 281 282 282 283 283 282 282 282 282 282 283 283 284 284 284
267 266 265 267 268 269 271 272 273 274 275 276 275 275 275 275 275 275 275 277 279 281 282 282 283 283 283 282 282 281 281 282 284 283 283 282 283 283 283 284 284 283 282
265 265 265 267 270 271 271 272 273 274 274 275 275 275 275 275 275 275 275 276 278 280 281 282 283 283 283 283 282 283 283 283 285 284 283 282 283 284 284 284 284 283 282
264 263 265 267 269 270 271 273 274 275 275 274 275 275 276 275 275 275 275 276 276 278 280 281 283 283 284 284 284 284 283 283 284 285 283 283 282 283 283 283 283 282 282
264 264 265 266 267 270 272 274 275 276 274 273 275 276 276 275 275 275 276 277 278 280 281 282 283 284 285 285 283 283 282 282 283 283 282 283 283 283 283 282 282 282 282
264 265 265 265 267 269 271 274 274 274 273 274 276 276 275 275 275 274 275 277 278 280 280 281 283 283 283 285 286 286 285 284 283 282 282 282 283 284 284 284 283 282 282
264 264 264 265 267 269 271 274 275 275 275 276 277 277 276 274 274 274 275 277 278 280 281 282 283 283 284 285 286 287 287 288 286 284 282 282 283 283 283 284 284 283 282